Weather History for Breckenridge, TX

Change the Weather History Date:

Monday, February 18, 2013

  Actual Average (KABI) Record (KABI)
Temperature  
Mean Temperature 56 °F 49 °F  
Max Temperature 69 °F 61 °F 85 °F (1986)
Min Temperature 44 °F 37 °F 10 °F (1936)
Degree Days  
Heating Degree Days 8 16  
Month to date heating degree days 317  
Since 1 July heating degree days 1986  
Cooling Degree Days 0 0  
Month to date cooling degree days 0  
Year to date cooling degree days 1  
Growing Degree Days 6 (Base 50)    
Moisture  
Dew Point 39 °F    
Average Humidity 55    
Maximum Humidity 72    
Minimum Humidity 23    
Precipitation  
Precipitation 0.00 in 0.05 in 0.88 in (1911)
Month to date precipitation 0.85  
Year to date precipitation 1.87  
Sea Level Pressure  
Sea Level Pressure 29.89 in    
Wind  
Wind Speed 18 mph (SW)    
Max Wind Speed 28 mph    
Max Gust Speed 37 mph    
Visibility 10 miles    
Events      
T = Trace of Precipitation, MM = Missing Value Source: NWS Daily Summary

Daily Weather History Graph

Daily Weather History Graph

Search for Another Location

Airport:

Trip Planner

Search our weather history database for the weather conditions in past years. The results will help you decide how hot, cold, wet, or windy it might be!

Date:

Astronomy

Feb. 18, 2013 Rise Set
Actual Time 7:15 AM CST 6:24 PM CST
Civil Twilight 6:50 AM CST 6:49 PM CST
Nautical Twilight 6:21 AM CST 7:17 PM CST
Astronomical Twilight 5:52 AM CST 7:46 PM CST
Moon 12:20 PM CST (2/18) 1:47 AM CST (2/18)
Length of Visible Light 11h 58m
Length of Day
11h 08m
First Quarter, 58% of the Moon is Illuminated
Feb 18
First Quarter
Feb 25
Full
Mar 4
Last Quarter
Mar 11
New
Mar 19
First Quarter

Hourly Weather History & Observations

Time (CST) Temp. Windchill Dew Point Humidity Pressure Visibility Wind Dir Wind Speed Gust Speed Precip Events Conditions
12:15 AM 57.2 °F - 42.8 °F 59% 29.81 in 10.0 mi South 21.9 mph 28.8 mph N/A   Clear
12:55 AM 57.2 °F - 42.8 °F 59% 29.80 in 10.0 mi South 21.9 mph 28.8 mph N/A   Clear
1:15 AM 55.4 °F - 44.6 °F 67% 29.79 in 10.0 mi South 23.0 mph 29.9 mph N/A   Clear
1:35 AM 55.4 °F - 44.6 °F 67% 29.79 in 10.0 mi South 17.3 mph 28.8 mph N/A   Clear
1:55 AM 55.4 °F - 44.6 °F 67% 29.80 in 10.0 mi South 19.6 mph 25.3 mph N/A   Clear
2:15 AM 55.4 °F - 44.6 °F 67% 29.79 in 10.0 mi South 18.4 mph 28.8 mph N/A   Mostly Cloudy
2:35 AM 55.4 °F - 46.4 °F 72% 29.79 in 10.0 mi South 18.4 mph 27.6 mph N/A   Mostly Cloudy
2:55 AM 55.4 °F - 46.4 °F 72% 29.77 in 10.0 mi South 17.3 mph 23.0 mph N/A   Mostly Cloudy
3:15 AM 57.2 °F - 46.4 °F 67% 29.76 in 10.0 mi SSW 16.1 mph 26.5 mph N/A   Scattered Clouds
3:35 AM 57.2 °F - 46.4 °F 67% 29.76 in 10.0 mi SSW 17.3 mph 28.8 mph N/A   Clear
3:55 AM 57.2 °F - 48.2 °F 72% 29.75 in 10.0 mi SSW 20.7 mph 28.8 mph N/A   Clear
4:15 AM 59.0 °F - 48.2 °F 67% 29.75 in 10.0 mi SSW 19.6 mph 29.9 mph N/A   Clear
4:35 AM 59.0 °F - 48.2 °F 67% 29.74 in 10.0 mi SSW 23.0 mph 31.1 mph N/A   Clear
4:55 AM 59.0 °F - 48.2 °F 67% 29.74 in 10.0 mi SSW 23.0 mph 32.2 mph N/A   Clear
5:15 AM 59.0 °F - 50.0 °F 72% 29.74 in 10.0 mi SSW 23.0 mph 34.5 mph N/A   Clear
5:35 AM 59.0 °F - 50.0 °F 72% 29.74 in 10.0 mi SSW 19.6 mph 27.6 mph N/A   Clear
5:55 AM 59.0 °F - 50.0 °F 72% 29.74 in 10.0 mi SSW 19.6 mph 26.5 mph N/A   Clear
6:15 AM 59.0 °F - 50.0 °F 72% 29.74 in 10.0 mi SSW 23.0 mph 29.9 mph N/A   Clear
6:35 AM 59.0 °F - 50.0 °F 72% 29.73 in 10.0 mi SSW 25.3 mph 31.1 mph N/A   Clear
7:35 AM 60.8 °F - 50.0 °F 68% 29.77 in 10.0 mi SW 23.0 mph 31.1 mph N/A   Clear
8:35 AM 62.6 °F - 50.0 °F 63% 29.80 in 10.0 mi SW 19.6 mph 29.9 mph N/A   Clear
8:55 AM 62.6 °F - 50.0 °F 63% 29.81 in 10.0 mi SW 27.6 mph 33.4 mph N/A   Clear
9:15 AM 64.4 °F - 50.0 °F 59% 29.81 in 10.0 mi WSW 16.1 mph 29.9 mph N/A   Clear
10:15 AM 68.0 °F - 42.8 °F 40% 29.82 in 10.0 mi West 24.2 mph 29.9 mph N/A   Clear
10:35 AM 69.8 °F - 35.6 °F 28% 29.83 in 10.0 mi West 26.5 mph 36.8 mph N/A   Clear
10:55 AM 69.8 °F - 32.0 °F 25% 29.83 in 10.0 mi West 20.7 mph 29.9 mph N/A   Clear
12:15 PM 68.0 °F - 28.4 °F 23% 29.88 in 10.0 mi NW 24.2 mph 28.8 mph N/A   Clear
1:35 PM 64.4 °F - 30.2 °F 28% 29.90 in 10.0 mi NNW 20.7 mph 27.6 mph N/A   Clear
2:35 PM 64.4 °F - 30.2 °F 28% 29.92 in 10.0 mi NW 19.6 mph 27.6 mph N/A   Clear
7:35 PM 53.6 °F - 28.4 °F 38% 30.07 in 10.0 mi North 3.5 mph - N/A   Clear
8:15 PM 51.8 °F - 30.2 °F 44% 30.09 in 10.0 mi NNW 4.6 mph - N/A   Clear
8:35 PM 51.8 °F - 28.4 °F 41% 30.10 in 10.0 mi NNW 3.5 mph - N/A   Clear
8:55 PM 51.8 °F - 28.4 °F 41% 30.10 in 10.0 mi North 5.8 mph - N/A   Clear
9:15 PM 51.8 °F - 28.4 °F 41% 30.11 in 10.0 mi North 4.6 mph - N/A   Clear
9:35 PM 50.0 °F - 28.4 °F 43% 30.11 in 10.0 mi North 4.6 mph - N/A   Clear
9:55 PM 50.0 °F - 28.4 °F 43% 30.12 in 10.0 mi North 5.8 mph - N/A   Clear
10:15 PM 48.2 °F - 28.4 °F 46% 30.12 in 10.0 mi NE 3.5 mph - N/A   Clear
10:35 PM 46.4 °F 41.5 °F 28.4 °F 50% 30.12 in 10.0 mi NNE 10.4 mph - N/A   Clear
10:55 PM 46.4 °F - 28.4 °F 50% 30.14 in 10.0 mi Calm Calm - N/A   Clear
11:15 PM 44.6 °F 43.1 °F 28.4 °F 53% 30.13 in 10.0 mi ENE 3.5 mph - N/A   Clear
11:35 PM 46.4 °F 44.3 °F 26.6 °F 46% 30.13 in 10.0 mi East 4.6 mph - N/A   Clear
11:55 PM 44.6 °F 43.1 °F 26.6 °F 49% 30.15 in 10.0 mi East 3.5 mph - N/A   Clear